TimeCST,TemperatureF,Dew PointF,Humidity,Sea Level PressureIn,VisibilityMPH,Wind Direction,Wind SpeedMPH,Gust SpeedMPH,PrecipitationIn,Events,Conditions,WindDirDegrees,DateUTC
12:53 AM,43.0,33.1,68,30.08,10.0,NNW,3.5,-,N/A,,Clear,340,2011-11-07 06:53:00
1:53 AM,39.2,32.0,75,30.08,10.0,Calm,Calm,-,N/A,,Clear,0,2011-11-07 07:53:00
2:53 AM,39.0,33.1,79,30.10,10.0,NW,3.5,-,N/A,,Clear,320,2011-11-07 08:53:00
3:53 AM,37.9,33.1,83,30.10,10.0,NW,3.5,-,N/A,,Partly Cloudy,320,2011-11-07 09:53:00
4:53 AM,39.0,32.0,76,30.12,10.0,NNE,5.8,-,N/A,,Partly Cloudy,20,2011-11-07 10:53:00
5:53 AM,39.0,32.0,76,30.13,10.0,NNE,5.8,-,N/A,,Clear,20,2011-11-07 11:53:00
6:53 AM,39.9,32.0,73,30.13,10.0,Calm,Calm,-,N/A,,Clear,0,2011-11-07 12:53:00
7:53 AM,44.1,36.0,73,30.15,10.0,NNE,4.6,-,N/A,,Mostly Cloudy,20,2011-11-07 13:53:00
8:53 AM,50.0,37.4,62,30.14,10.0,NE,6.9,-,N/A,,Mostly Cloudy,50,2011-11-07 14:53:00
9:33 AM,53.6,39.2,58,30.11,10.0,East,11.5,-,N/A,,Mostly Cloudy,80,2011-11-07 15:33:00
9:48 AM,53.6,39.2,58,30.11,10.0,ENE,11.5,-,N/A,,Overcast,60,2011-11-07 15:48:00
9:53 AM,54.0,41.0,62,30.12,10.0,ENE,10.4,-,N/A,,Overcast,60,2011-11-07 15:53:00
10:33 AM,57.2,44.6,63,30.10,10.0,ENE,12.7,-,N/A,,Scattered Clouds,60,2011-11-07 16:33:00
10:50 AM,57.2,46.4,67,30.11,10.0,ENE,11.5,-,N/A,,Mostly Cloudy,70,2011-11-07 16:50:00
11:53 AM,57.9,48.9,72,30.09,10.0,East,9.2,-,N/A,,Overcast,80,2011-11-07 17:53:00
12:53 PM,57.9,50.0,75,30.05,10.0,ENE,12.7,-,N/A,,Overcast,70,2011-11-07 18:53:00
1:53 PM,57.0,52.0,83,30.01,6.0,ENE,12.7,-,0.00,Rain,Light Rain,60,2011-11-07 19:53:00
2:53 PM,55.9,53.1,90,30.01,4.0,East,9.2,-,0.02,Rain,Light Rain,90,2011-11-07 20:53:00
2:58 PM,55.4,53.6,94,30.00,1.8,East,11.5,-,0.02,Rain,Heavy Rain,90,2011-11-07 20:58:00
3:16 PM,55.4,53.6,94,29.99,1.5,East,13.8,-,0.21,Rain,Heavy Rain,90,2011-11-07 21:16:00
3:25 PM,55.4,53.6,94,29.98,2.0,ENE,16.1,-,0.24,Rain,Rain,70,2011-11-07 21:25:00
3:43 PM,55.4,53.6,94,29.96,3.0,ENE,15.0,-,0.25,Rain,Light Rain,60,2011-11-07 21:43:00
3:53 PM,55.0,55.0,100,29.98,3.0,East,10.4,-,0.25,Rain,Light Rain,80,2011-11-07 21:53:00
4:28 PM,55.4,55.4,100,29.95,4.0,NE,11.5,-,0.04,Rain-Thunderstorm,Light Rain,40,2011-11-07 22:28:00
4:43 PM,55.4,55.4,100,29.96,4.0,NE,13.8,-,0.06,Rain,Rain,50,2011-11-07 22:43:00
4:53 PM,55.9,55.0,97,29.97,5.0,NE,8.1,-,0.07,Rain,Rain,40,2011-11-07 22:53:00
5:02 PM,55.4,55.4,100,29.95,4.0,NNE,10.4,-,0.03,Rain-Thunderstorm,Heavy Rain,30,2011-11-07 23:02:00
5:29 PM,53.6,53.6,100,29.96,2.0,North,16.1,-,0.18,Rain-Thunderstorm,Heavy Thunderstorms and Rain,10,2011-11-07 23:29:00
5:40 PM,50.0,50.0,100,29.97,1.5,North,19.6,25.3,0.34,Rain-Thunderstorm,Heavy Thunderstorms and Rain,350,2011-11-07 23:40:00
5:53 PM,48.9,48.0,97,29.98,2.0,North,20.7,31.1,0.49,Rain-Thunderstorm,Heavy Thunderstorms and Rain,360,2011-11-07 23:53:00
5:56 PM,48.2,48.2,100,29.97,1.8,North,19.6,31.1,0.05,Rain-Thunderstorm,Heavy Thunderstorms and Rain,10,2011-11-07 23:56:00
6:13 PM,48.2,48.2,100,29.96,2.0,NNE,18.4,28.8,0.31,Rain-Thunderstorm,Heavy Thunderstorms and Rain,20,2011-11-08 00:13:00
6:53 PM,48.0,46.9,96,30.02,2.5,North,24.2,32.2,0.56,Rain-Thunderstorm,Heavy Rain,10,2011-11-08 00:53:00
7:07 PM,46.4,46.4,100,30.01,1.8,NNE,19.6,31.1,0.14,Rain-Thunderstorm,Heavy Rain,20,2011-11-08 01:07:00
7:13 PM,46.4,46.4,100,30.01,2.5,North,21.9,31.1,0.17,Rain-Thunderstorm,Heavy Thunderstorms and Rain,10,2011-11-08 01:13:00
7:27 PM,46.4,44.6,93,29.99,3.0,NE,28.8,38.0,0.23,Rain-Thunderstorm,Heavy Thunderstorms and Rain,40,2011-11-08 01:27:00
7:46 PM,46.4,44.6,93,29.98,3.0,NE,24.2,32.2,0.33,Rain,Heavy Rain,40,2011-11-08 01:46:00
7:53 PM,46.4,44.6,93,29.98,3.0,NE,23.0,34.5,N/A,Rain,Heavy Rain,40,2011-11-08 01:53:00
8:01 PM,46.4,44.6,93,29.98,4.0,NE,17.3,34.5,0.03,Rain-Thunderstorm,Heavy Rain,40,2011-11-08 02:01:00
8:16 PM,46.4,44.6,93,29.98,5.0,NE,20.7,29.9,0.08,Rain,Rain,40,2011-11-08 02:16:00
8:26 PM,46.4,44.6,93,29.97,5.0,NE,17.3,28.8,0.11,Rain-Thunderstorm,Rain,50,2011-11-08 02:26:00
8:53 PM,46.9,45.0,93,29.95,8.0,ENE,18.4,34.5,0.20,Rain,Light Rain,70,2011-11-08 02:53:00
9:51 PM,46.4,44.6,93,29.89,10.0,ENE,20.7,27.6,0.00,Rain,Light Rain,60,2011-11-08 03:51:00
9:53 PM,46.9,45.0,93,29.90,10.0,ENE,19.6,27.6,0.00,Rain,Light Rain,60,2011-11-08 03:53:00
10:19 PM,46.4,44.6,93,29.97,10.0,East,11.5,-,0.00,Rain,Light Rain,80,2011-11-08 04:19:00
10:53 PM,46.9,45.0,93,29.95,10.0,ENE,10.4,-,0.01,Rain,Light Rain,70,2011-11-08 04:53:00
11:46 PM,46.4,46.4,100,29.96,5.0,NNW,5.8,-,0.06,Rain,Rain,330,2011-11-08 05:46:00
11:53 PM,46.0,46.0,100,29.95,5.0,NNE,8.1,-,0.07,Rain,Rain,30,2011-11-08 05:53:00